Location: Geroldsau
(48.7259°N, 8.2466°E)
Time: 08:22:26
(UTC+00:00)

ATLAS 5 CENTAUR R/B - Pass Details

Date: 20 June 2021
Orbit: 510 x 1148 km, 63.4° (Epoch: 28 July)

Event Time Altitude Azimuth Distance (km) Brightness Sun altitude
Exits shadow 02:29:23 - 245° (WSW) 2,008 3.6 -7.3°
Reaches altitude 10° 02:29:53 10° 247° (WSW) 1,813 3.4 -7.3°
Maximum altitude 02:33:45 44° 321° (NW) 818 2.3 -6.9°
Drops below altitude 10° 02:38:12 10° 34° (NE) 2,083 6.0 -6.4°
Sets 02:40:49 0° 41° (NE) 3,106 8.0 -6.1°
